Location: Blaenwaun
(51.9144°N, 4.5667°W)
Time: 17:53:54
(UTC+00:00)

Daily predictions for brighter satellites

Satellite Brightness Start Highest point End
(mag) Time Altitude Azimuth Time Altitude Azimuth Time Altitude Azimuth
BREEZE-M DEB (TANK) 4.1 21:15:19 10° W 21:19:03 73° S 21:32:35 10° E
Spot 2 Rocket 3.7 21:18:31 10° SSE 21:23:37 79° WSW 21:28:46 10° NNW
Cosmos 2181 Rocket 4.3 21:21:03 10° N 21:27:22 60° ENE 21:33:32 10° SSE
Landsat 7 4.0 21:23:21 10° S 21:28:07 77° WSW 21:32:55 10° NNW
Cosmos 1745 Rocket 4.3 21:27:14 10° SSW 21:33:27 76° WNW 21:39:46 10° N
SPOT 1/Viking Rocket 3.7 21:33:04 10° S 21:38:14 77° WSW 21:43:26 10° NNW
Cosmos 1953 Rocket 3.6 21:34:46 10° S 21:39:00 59° E 21:43:17 10° NNE
NOSS 7 (D) 3.7 21:37:12 10° SW 21:39:58 88° SE 21:42:38 10° NE
CZ-4C R/B 4.4 21:35:42 10° NW 21:41:09 31° N 21:47:31 10° ENE
USA 267 3.4 21:35:51 10° ESE 21:42:26 83° NNE 21:49:02 10° WNW
SAR-Lupe-2 3.6 21:39:24 10° NNE 21:43:00 65° ESE 21:46:34 10° S
Cosmos 2084 3.6 21:39:08 10° NW 21:43:39 89° ENE 21:48:04 10° SE
Cosmos 1328 3.9 21:39:47 10° S 21:43:45 85° W 21:47:45 10° N
Cosmos 1842 Rocket 4.2 21:40:49 10° N 21:45:00 43° ENE 21:49:02 11° SE
Cosmos 2322 Rocket 3.2 21:40:14 10° SW 21:45:42 52° NW 21:51:14 10° NNE
Cosmos 1455 3.8 21:42:31 10° NNW 21:45:58 32° W 21:49:25 10° SSW
Cosmos 2237 4.5 21:42:46 10° SW 21:48:32 78° WNW 21:54:18 10° NNE
Cosmos 1825 Rocket 3.9 21:50:17 10° SSW 21:54:43 69° WNW 21:59:12 10° N
ATLAS CENTAUR R/B 1.1 21:51:28 10° NW 21:55:12 75° SW 21:58:26 13° SE
Cosmos 1703 4.0 21:53:44 10° SSW 21:57:31 54° WNW 22:01:22 10° N
Alouette 2 Rocket 4.4 21:54:31 10° NNW 21:58:05 45° W 22:02:40 10° S
COSMOS 2428 2.9 22:00:07 10° S 22:05:36 53° ESE 22:11:08 10° NE
Cosmos 1869 3.6 22:02:07 10° N 22:06:02 54° ENE 22:09:22 14° SSE
SL-24 R/B - RUBIN 2 4.5 22:01:23 10° SSW 22:07:32 76° SE 22:14:14 10° NE
Cosmos 2322 3.7 22:03:42 10° SSW 22:09:26 85° ESE 22:15:12 10° NNE
NOSS 3-4 (A) 4.0 22:05:10 10° NW 22:11:57 70° NE 22:19:29 10° SE
NOSS 3-4 (C) 4.0 22:05:17 10° NW 22:12:03 70° NE 22:19:35 10° ESE
Meteor 1-27 4.4 22:06:40 10° NNW 22:12:24 77° W 22:18:05 10° S
CARTOSAT-1 4.3 22:10:24 10° S 22:14:35 49° W 22:18:48 10° NNW
Terra 1.9 22:10:34 11° S 22:15:05 77° WSW 22:19:53 10° NNW
Cosmos 1709 Rocket 4.5 22:12:19 10° SSW 22:18:34 64° WNW 22:24:56 10° N
BREEZE-M DEB 4.2 22:15:20 10° W 22:19:00 53° SSW 22:31:45 10° ESE
Cosmos 2237 Rocket 3.1 22:14:58 13° SSE 22:19:12 30° ESE 22:24:05 10° NE
Cosmos 2333 4.3 22:15:36 10° SSW 22:21:15 84° WNW 22:27:01 10° NNE
Cosmos 2219 Rocket 2.1 22:15:48 10° SSW 22:21:22 74° ESE 22:26:59 10° NNE
Cosmos 2344 4.5 22:16:02 12° SSE 22:21:36 27° ESE 22:27:56 10° ENE
Cosmos 1538 Rocket 4.0 22:17:22 10° SSW 22:22:43 77° ESE 22:28:03 10° NNE
Cosmos 2360 Rocket 3.2 22:18:06 10° SW 22:23:34 50° NW 22:29:06 10° NNE
NOSS 3-3 (A) 4.0 22:17:54 10° SSW 22:23:44 62° SE 22:30:22 10° NE
NOSS 3-3 (C) 4.0 22:18:01 10° SSW 22:23:51 62° SE 22:30:29 10° NE
Cosmos 1315 Rocket 3.5 22:22:13 10° NNW 22:26:13 52° W 22:29:55 12° S
Thor Agena Rocket 4.4 22:25:22 10° NNE 22:29:57 32° E 22:33:18 16° SSE
Meteor 2-2 Rocket 4.3 22:25:10 10° NNW 22:31:03 89° W 22:35:55 15° S
Cosmos 2333 Rocket 2.2 22:25:46 10° SSW 22:31:28 90° SE 22:37:16 10° NNE
Cosmos 2184 Rocket 4.0 22:27:10 11° S 22:33:12 73° E 22:39:30 10° NNE
Cosmos 2221 2.6 22:31:27 10° NNW 22:35:51 75° W 22:39:20 16° S
Cosmos 1818 4.5 22:32:40 10° WSW 22:37:59 53° NW 22:43:20 10° NE
BREEZE-M DEB (TANK) 1.9 22:34:10 10° W 22:39:20 58° SSW 22:41:22 15° ESE
ATLAS 2AS CENTAUR R/B 2.9 22:32:13 10° NW 22:39:59 85° NE 22:46:25 13° SE
Cosmos 1371 Rocket 4.3 22:34:49 10° NNW 22:40:02 60° ENE 22:44:15 16° SE
Iridium 2 4.4 22:36:22 10° N 22:40:02 42° E 22:42:26 19° SE
ERS-1 Rocket 4.3 22:37:33 10° SSW 22:42:03 32° W 22:46:35 10° NNW
GEOS 3 Rocket 4.2 22:36:50 10° NE 22:42:11 66° NW 22:47:32 10° WSW
EO 1 Del DPAF 4.3 22:39:46 10° NE 22:43:06 29° E 22:44:59 19° SE
Cosmos 1892 2.8 22:41:59 19° S 22:44:36 61° E 22:48:22 10° NNE
Aureole 2 Rocket 3.6 22:44:46 10° N 22:47:11 25° ENE 22:48:59 15° ESE
Cosmos 1606 4.2 22:46:28 10° N 22:49:49 27° ENE 22:52:19 15° ESE
Cosmos 2278 Rocket 2.4 22:45:08 10° NW 22:50:45 64° WSW 22:54:59 18° SSE
USA 215 3.2 22:44:47 10° ENE 22:51:22 74° SSE 22:57:55 10° SW
Cosmos 2297 4.3 22:46:30 10° NNW 22:52:08 51° NE 22:57:11 13° SE
ATLAS 5 CENTAUR R/B 2.9 22:51:25 10° WSW 22:55:36 45° NNW 23:00:24 10° NE
Cosmos 158 Rocket 4.2 22:52:56 18° S 22:56:20 48° ESE 23:01:04 10° NE
Lacrosse 5 rocket 2.6 22:54:08 10° WNW 22:58:06 41° N 23:01:51 10° E
Cosmos 1943 Rocket 3.6 22:53:24 10° NNW 22:58:33 34° NE 23:03:40 10° ESE
Spot 4 3.8 22:59:07 20° SSE 23:02:28 82° ENE 23:07:17 10° NNW
SL-16 R/B 3.4 23:00:47 17° SE 23:03:36 26° ESE 23:08:12 10° NE
Cosmos 2056 Rocket 3.6 22:58:34 10° NNW 23:04:01 79° ENE 23:07:58 19° SSE
Cosmos 2058 2.9 23:01:11 17° SSW 23:04:20 85° W 23:08:30 10° N
Cosmos 1408 2.6 23:03:24 24° S 23:05:24 64° E 23:08:57 10° NNE
Nadezhda 3 Rocket 4.1 23:02:36 10° NNW 23:09:00 77° W 23:13:54 18° S
Cosmos 2154 Rocket 4.0 23:07:49 15° S 23:13:03 90° W 23:19:20 10° N
Cosmos 1076 Rocket 3.6 23:12:54 17° SSW 23:16:09 74° WNW 23:20:26 10° N
Cosmos 2341 Rocket 4.2 23:11:46 19° SSE 23:16:11 59° E 23:22:18 10° NNE
In-Cosmos 22 Rocket 4.3 23:11:39 13° SSW 23:16:27 71° WNW 23:21:48 10° N
Cosmos 1680 Rocket 3.5 23:15:57 15° SSW 23:20:28 82° ESE 23:25:50 10° NNE
USA 267 3.7 23:21:24 19° SSE 23:25:49 45° SW 23:32:04 10° WNW
Cosmos 2151 3.0 23:23:53 24° S 23:26:21 67° E 23:30:37 10° NNE
Helios 1A 4.0 23:24:53 17° SE 23:27:39 38° ENE 23:31:32 10° N
Cosmos 1452 Rocket 4.1 23:25:50 10° NNW 23:31:01 53° ENE 23:35:06 16° SE
CZ-4C R/B 3.7 23:24:41 10° NW 23:31:10 50° NNE 23:38:49 10° ESE
BREEZE-M DEB (TANK) 4.1 23:28:59 10° W 23:31:57 15° WSW 23:32:45 14° SW
COSMOS 2455 3.3 23:26:35 10° NW 23:32:35 61° NE 23:38:24 11° SE
Cosmos 1825 2.1 23:32:56 25° SSW 23:35:02 87° WNW 23:38:51 10° N
SL-8 Rocket 4.2 23:30:59 21° SSE 23:35:08 61° E 23:41:12 10° NNE
Cosmos 1340 3.8 23:34:23 23° SE 23:35:53 31° E 23:39:15 10° NNE
Cosmos 1933 3.6 23:32:04 10° N 23:36:04 61° ENE 23:38:13 25° SSE
Cosmos 1151 Rocket 3.1 23:33:16 10° N 23:37:37 69° ENE 23:40:03 25° SSE
ALOS 2 2.6 23:35:27 25° SSE 23:38:00 89° WSW 23:42:26 10° NNW
Cosmos 1408 Rocket 4.4 23:35:56 22° SE 23:38:07 37° E 23:42:11 10° NNE
Cosmos 923 Rocket 4.5 23:32:55 10° SW 23:38:07 61° WNW 23:43:24 10° NNE
EO 1 Delta rocket 4.3 23:33:43 10° N 23:38:41 78° WNW 23:43:18 17° SSW
APEX 3.0 23:40:31 10° NNW 23:43:14 50° NE 23:44:21 28° ESE
Cosmos 2369 Rocket 3.1 23:37:54 10° NNW 23:43:18 45° NE 23:48:40 10° ESE
Cosmos 1727 Rocket 4.4 23:37:23 10° N 23:43:32 56° ENE 23:48:04 19° SSE
Cosmos 1980 3.9 23:38:58 10° SW 23:44:36 72° WNW 23:50:17 10° NNE
IRIDIUM 103 4.5 23:41:42 23° SSE 23:44:56 65° E 23:50:07 10° N
Cosmos 44 3.5 23:43:38 26° S 23:45:29 41° ESE 23:49:40 10° NE
GP-B 3.1 23:41:53 10° N 23:46:21 79° E 23:48:50 26° S
Cosmos 371 Rocket 3.3 23:42:29 10° NNW 23:47:24 86° ENE 23:50:25 23° SSE
SL-4 R/B 0.7 23:48:59 53° ENE 23:49:00 53° ENE 23:51:03 10° N
COSMOS 2428 4.2 23:44:53 10° WSW 23:50:07 37° NW 23:55:23 10° NNE
Helios 1B rocket 4.4 23:50:43 10° NE 23:53:32 17° E 23:55:23 14° ESE
Terra 4.3 23:51:55 10° WSW 23:53:39 12° W 23:55:25 10° WNW
CREW DRAGON DEMO-1 DEB 3.3 23:54:48 39° SSE 23:54:48 39° SSE 23:57:38 10° E
